contact:dominique.lefevre@mio.osupytheas.fr, maurice.libes@osupytheas.fr, didier.mallarino@osupytheas.fr
Project:EMSO http://www.emso-fr.org/EMSO-France
Depth: 2436.0 m
Title:EMSO Ligure Ouest : Data MII capteur AQUADOPP
Date,Latitude,Longitude,X_East,Y_North,Z_Up,Amplitude_X,Amplitude_Y,Amplitude_Z,Batterie,SoundSpeed,Heading,Pitch,Roll,Pressure,TIS,Speed,Direction
, degrees North, degrees East, m.s-1, m.s-1,m.s-1, 1, 1, 1, Volt, m.s-1, degree, degree, degree, dbar, degree_C, m.s-1, degree
2023-12-02T00:04:03,42.805,6.029,0.016,-0.036,-0.015,111.0,109.0,107.0,13.4,1505.2,352.2,-0.8,1.8,2471.647,13.28,0.039,156.0
2023-12-02T00:07:03,42.805,6.029,0.023,-0.051,-0.003,111.0,109.0,107.0,13.4,1505.2,351.3,-0.8,1.8,2471.635,13.29,0.055,155.7
2023-12-02T00:10:03,42.805,6.029,0.029,-0.034,-0.013,110.0,109.0,107.0,13.4,1505.2,354.3,-0.8,1.8,2471.602,13.29,0.044,139.5
2023-12-02T00:13:03,42.805,6.029,0.028,-0.055,-0.01,110.0,110.0,107.0,13.4,1505.2,1.7,-0.7,1.8,2471.564,13.29,0.061,153.0
2023-12-02T00:16:03,42.805,6.029,0.011,-0.051,-0.01,110.0,110.0,107.0,13.3,1505.2,340.8,-0.8,1.8,2471.608,13.29,0.052,167.8
2023-12-02T00:19:03,42.805,6.029,0.039,-0.043,-0.03,110.0,109.0,107.0,13.3,1505.2,345.3,-0.8,1.8,2471.552,13.29,0.058,137.8
2023-12-02T00:22:03,42.805,6.029,0.024,-0.038,-0.038,109.0,109.0,107.0,13.3,1505.2,342.3,-0.8,1.8,2471.559,13.29,0.044,147.7
2023-12-02T00:25:03,42.805,6.029,0.011,-0.021,-0.026,112.0,110.0,106.0,13.4,1505.2,2.6,-0.8,1.8,2471.557,13.29,0.023,152.4
2023-12-02T00:28:03,42.805,6.029,0.015,-0.042,0.009,112.0,110.0,107.0,13.3,1505.2,347.9,-0.8,1.8,2471.562,13.29,0.044,160.4
2023-12-02T00:31:03,42.805,6.029,0.013,-0.027,0.014,111.0,110.0,107.0,13.4,1505.2,356.3,-0.8,1.8,2471.539,13.29,0.029,154.3
2023-12-02T00:34:03,42.805,6.029,0.014,-0.017,-0.006,111.0,110.0,106.0,13.4,1505.2,1.7,-0.8,1.8,2471.537,13.29,0.022,140.5
2023-12-02T00:37:03,42.805,6.029,0.039,-0.028,0.016,110.0,110.0,108.0,13.4,1505.2,337.3,-0.7,1.8,2471.547,13.29,0.048,125.7
2023-12-02T00:40:03,42.805,6.029,0.005,-0.02,0.004,109.0,110.0,107.0,13.3,1505.2,341.8,-0.7,1.8,2471.557,13.29,0.02,166.0
2023-12-02T00:43:03,42.805,6.029,0.013,-0.038,-0.01,112.0,110.0,107.0,13.4,1505.2,342.7,-0.7,1.8,2471.579,13.29,0.04,161.1
2023-12-02T00:46:03,42.805,6.029,0.016,-0.024,-0.028,112.0,111.0,108.0,13.4,1505.2,357.5,-0.7,1.8,2471.537,13.29,0.028,146.3
2023-12-02T00:49:03,42.805,6.029,0.02,-0.035,-0.028,111.0,109.0,108.0,13.4,1505.2,337.8,-0.8,1.8,2471.567,13.29,0.04,150.3
2023-12-02T00:52:03,42.805,6.029,0.032,-0.044,-0.006,111.0,110.0,106.0,13.4,1505.2,353.6,-0.8,1.8,2471.542,13.29,0.054,144.0
2023-12-02T00:55:03,42.805,6.029,0.026,-0.048,-0.019,111.0,109.0,107.0,13.4,1505.2,0.0,-0.8,1.8,2471.564,13.29,0.054,151.6
2023-12-02T00:58:03,42.805,6.029,0.038,-0.046,0.011,112.0,110.0,107.0,13.3,1505.2,340.0,-0.8,1.8,2471.553,13.29,0.059,140.4
2023-12-02T01:01:03,42.805,6.029,0.027,-0.026,-0.01,110.0,110.0,107.0,13.4,1505.2,352.3,-0.7,1.8,2471.567,13.29,0.037,133.9
2023-12-02T01:04:03,42.805,6.029,0.03,-0.024,-0.008,112.0,110.0,108.0,13.4,1505.2,351.6,-0.8,1.8,2471.586,13.29,0.038,128.7
2023-12-02T01:07:03,42.805,6.029,0.022,-0.048,-0.008,111.0,111.0,107.0,13.4,1505.2,345.5,-0.7,1.8,2471.51,13.29,0.052,155.4
2023-12-02T01:10:03,42.805,6.029,0.018,-0.031,-0.004,110.0,111.0,108.0,13.4,1505.2,350.0,-0.8,1.8,2471.542,13.29,0.035,149.9
2023-12-02T01:13:03,42.805,6.029,0.008,-0.022,0.004,110.0,111.0,108.0,13.4,1505.2,0.0,-0.7,1.8,2471.521,13.29,0.023,160.0
2023-12-02T01:16:03,42.805,6.029,0.037,-0.022,-0.022,110.0,110.0,107.0,13.3,1505.2,344.3,-0.8,1.8,2471.583,13.29,0.043,120.7
2023-12-02T01:19:03,42.805,6.029,0.019,-0.015,-0.017,111.0,110.0,107.0,13.4,1505.2,349.4,-0.7,1.8,2471.532,13.29,0.024,128.3
2023-12-02T01:22:03,42.805,6.029,0.043,-0.021,-0.033,111.0,110.0,107.0,13.3,1505.2,341.3,-0.7,1.8,2471.504,13.29,0.047,116.0
2023-12-02T01:25:03,42.805,6.029,0.018,-0.04,0.013,111.0,109.0,107.0,13.4,1505.2,355.6,-0.8,1.8,2471.574,13.29,0.043,155.8
2023-12-02T01:28:03,42.805,6.029,0.018,-0.03,-0.005,111.0,110.0,107.0,13.4,1505.2,350.6,-0.8,1.8,2471.542,13.29,0.034,149.0
2023-12-02T01:31:03,42.805,6.029,0.004,-0.02,-0.005,111.0,109.0,107.0,13.4,1505.2,347.1,-0.8,1.8,2471.556,13.29,0.02,168.7
2023-12-02T01:34:03,42.805,6.029,0.024,-0.052,-0.005,112.0,109.0,107.0,13.4,1505.2,348.0,-0.7,1.8,2471.555,13.29,0.057,155.2
2023-12-02T01:37:03,42.805,6.029,0.032,-0.042,0.002,110.0,110.0,106.0,13.4,1505.2,0.0,-0.8,1.8,2471.563,13.29,0.052,142.7
2023-12-02T01:40:03,42.805,6.029,0.014,-0.025,-0.012,110.0,110.0,107.0,13.4,1505.2,345.9,-0.8,1.8,2471.568,13.29,0.028,150.7
2023-12-02T01:43:03,42.805,6.029,0.018,-0.046,-0.021,111.0,111.0,107.0,13.4,1505.2,355.1,-0.8,1.8,2471.527,13.29,0.049,158.6
2023-12-02T01:46:03,42.805,6.029,0.023,-0.04,0.017,111.0,111.0,107.0,13.3,1505.2,335.6,-0.8,1.8,2471.547,13.29,0.046,150.1
2023-12-02T01:49:03,42.805,6.029,0.03,-0.029,-0.026,111.0,110.0,107.0,13.4,1505.2,347.8,-0.7,1.8,2471.567,13.29,0.041,134.0
2023-12-02T01:52:03,42.805,6.029,0.014,-0.029,-0.018,111.0,109.0,107.0,13.4,1505.2,353.3,-0.8,1.8,2471.564,13.29,0.032,154.2
2023-12-02T01:55:03,42.805,6.029,0.009,-0.015,-0.024,110.0,110.0,108.0,13.4,1505.2,343.5,-0.7,1.8,2471.543,13.29,0.017,149.0
2023-12-02T01:58:03,42.805,6.029,0.006,-0.024,-0.018,111.0,110.0,106.0,13.4,1505.2,354.7,-0.8,1.8,2471.536,13.29,0.024,166.0
2023-12-02T02:04:03,42.805,6.029,0.02,-0.038,0.005,110.0,110.0,107.0,13.3,1505.2,349.4,-0.8,1.8,2471.567,13.28,0.042,152.2
2023-12-02T02:07:03,42.805,6.029,0.009,-0.035,0.0,111.0,110.0,108.0,13.4,1505.2,349.6,-0.7,1.8,2471.573,13.29,0.036,165.6
2023-12-02T02:10:03,42.805,6.029,0.009,-0.047,-0.027,112.0,110.0,106.0,13.3,1505.2,347.9,-0.8,1.8,2471.568,13.29,0.047,169.2
2023-12-02T02:13:03,42.805,6.029,0.025,-0.059,-0.016,109.0,110.0,107.0,13.4,1505.2,350.8,-0.8,1.8,2471.559,13.29,0.064,157.0
2023-12-02T02:16:03,42.805,6.029,0.012,-0.025,-0.023,111.0,110.0,107.0,13.4,1505.2,355.5,-0.8,1.9,2471.563,13.29,0.027,154.4
2023-12-02T02:19:03,42.805,6.029,0.005,-0.023,-0.006,111.0,109.0,107.0,13.4,1505.2,344.4,-0.8,1.8,2471.538,13.29,0.023,167.7
2023-12-02T02:22:03,42.805,6.029,0.006,-0.044,-0.004,111.0,110.0,106.0,13.4,1505.2,355.0,-0.8,1.8,2471.53,13.29,0.044,172.2
2023-12-02T02:25:03,42.805,6.029,0.02,-0.028,-0.007,111.0,109.0,107.0,13.4,1505.2,340.5,-0.7,1.8,2471.547,13.29,0.034,144.5
2023-12-02T02:28:03,42.805,6.029,0.026,-0.026,-0.015,111.0,111.0,105.0,13.3,1505.2,351.3,-0.7,1.8,2471.514,13.29,0.036,135.0
2023-12-02T02:31:03,42.805,6.029,0.015,-0.036,-0.012,111.0,109.0,106.0,13.4,1505.2,348.3,-0.8,1.7,2471.566,13.29,0.039,157.4
2023-12-02T02:34:03,42.805,6.029,0.016,-0.03,-0.005,110.0,109.0,107.0,13.4,1505.2,346.1,-0.8,1.8,2471.496,13.29,0.034,151.9
2023-12-02T02:37:03,42.805,6.029,0.024,-0.013,0.011,112.0,110.0,107.0,13.4,1505.2,353.5,-0.8,1.8,2471.535,13.29,0.027,118.4
2023-12-02T02:40:03,42.805,6.029,0.016,-0.039,0.007,110.0,109.0,107.0,13.4,1505.2,339.3,-0.7,1.8,2471.53,13.29,0.042,157.7
2023-12-02T02:43:03,42.805,6.029,0.003,-0.04,-0.004,111.0,110.0,106.0,13.3,1505.2,352.8,-0.7,1.9,2471.508,13.29,0.04,175.7
2023-12-02T02:46:03,42.805,6.029,0.026,-0.033,-0.028,111.0,111.0,107.0,13.4,1505.2,354.0,-0.8,1.8,2471.54,13.29,0.042,141.8
2023-12-02T02:49:03,42.805,6.029,0.001,-0.009,0.02,111.0,110.0,107.0,13.4,1505.2,2.5,-0.8,1.8,2471.549,13.29,0.009,173.7
2023-12-02T02:52:03,42.805,6.029,0.021,-0.033,-0.045,111.0,110.0,107.0,13.4,1505.2,337.3,-0.8,1.8,2471.541,13.29,0.039,147.5
2023-12-02T02:55:03,42.805,6.029,0.025,-0.008,-0.016,111.0,110.0,107.0,13.4,1505.2,344.2,-0.8,1.8,2471.523,13.29,0.026,107.7
2023-12-02T02:58:03,42.805,6.029,0.04,-0.005,-0.005,111.0,109.0,107.0,13.4,1505.2,343.0,-0.8,1.8,2471.51,13.29,0.04,97.1
2023-12-02T03:04:03,42.805,6.029,0.043,-0.017,0.005,110.0,111.0,107.0,13.4,1505.2,344.5,-0.8,1.8,2471.539,13.28,0.046,111.6
2023-12-02T03:07:03,42.805,6.029,0.013,-0.038,-0.013,111.0,110.0,106.0,13.4,1505.2,359.0,-0.8,1.8,2471.581,13.29,0.04,161.1
2023-12-02T03:10:03,42.805,6.029,0.034,-0.02,0.025,110.0,111.0,107.0,13.4,1505.2,340.5,-0.8,1.8,2471.566,13.29,0.039,120.5
2023-12-02T03:13:03,42.805,6.029,0.029,-0.026,-0.024,111.0,110.0,107.0,13.4,1505.2,344.9,-0.8,1.9,2471.552,13.29,0.038,131.9
2023-12-02T03:16:03,42.805,6.029,0.023,-0.02,-0.001,110.0,109.0,107.0,13.4,1505.2,359.0,-0.8,1.8,2471.551,13.29,0.03,131.0
2023-12-02T03:19:03,42.805,6.029,0.023,-0.014,-0.006,111.0,110.0,105.0,13.4,1505.2,347.4,-0.8,1.8,2471.55,13.29,0.026,121.3
2023-12-02T03:22:03,42.805,6.029,0.017,-0.024,0.002,111.0,111.0,107.0,13.4,1505.2,348.6,-0.7,1.8,2471.527,13.29,0.029,144.7
2023-12-02T03:25:03,42.805,6.029,0.023,-0.041,0.006,111.0,111.0,106.0,13.3,1505.2,356.1,-0.8,1.8,2471.546,13.29,0.047,150.7
2023-12-02T03:28:03,42.805,6.029,0.034,-0.013,-0.018,111.0,109.0,107.0,13.4,1505.2,339.0,-0.8,1.8,2471.555,13.29,0.036,110.9
2023-12-02T03:31:03,42.805,6.029,0.016,-0.033,0.017,110.0,109.0,106.0,13.3,1505.2,342.0,-0.8,1.8,2471.489,13.29,0.036,154.1
2023-12-02T03:34:03,42.805,6.029,0.042,-0.021,-0.007,110.0,110.0,106.0,13.4,1505.2,337.0,-0.8,1.8,2471.523,13.29,0.046,116.6
2023-12-02T03:37:03,42.805,6.029,0.018,-0.037,0.001,111.0,110.0,107.0,13.4,1505.2,352.5,-0.8,1.8,2471.538,13.29,0.041,154.1
2023-12-02T03:40:03,42.805,6.029,0.035,-0.034,-0.027,109.0,109.0,108.0,13.4,1505.2,351.5,-0.8,1.8,2471.52,13.29,0.048,134.2
2023-12-02T03:43:03,42.805,6.029,0.028,-0.037,-0.033,111.0,109.0,107.0,13.3,1505.2,343.5,-0.8,1.8,2471.521,13.29,0.046,142.9
2023-12-02T03:46:03,42.805,6.029,0.034,-0.032,-0.002,110.0,109.0,107.0,13.4,1505.2,355.7,-0.7,1.8,2471.506,13.29,0.046,133.3
2023-12-02T03:49:03,42.805,6.029,0.027,-0.017,-0.008,112.0,110.0,106.0,13.4,1505.2,341.8,-0.7,1.8,2471.505,13.29,0.031,122.2
2023-12-02T03:52:03,42.805,6.029,-0.002,-0.027,-0.038,108.0,108.0,107.0,13.4,1505.2,347.3,-0.8,1.8,2471.535,13.29,0.027,184.2
2023-12-02T03:55:03,42.805,6.029,0.024,-0.015,-0.003,111.0,109.0,107.0,13.4,1505.2,343.8,-0.7,1.9,2471.539,13.29,0.028,122.0
2023-12-02T03:58:03,42.805,6.029,0.018,-0.013,-0.007,111.0,111.0,107.0,13.4,1505.2,0.0,-0.8,1.8,2471.54,13.29,0.022,125.8
2023-12-02T04:04:03,42.805,6.029,0.02,-0.014,0.001,110.0,110.0,106.0,13.3,1505.2,353.2,-0.8,1.8,2471.564,13.29,0.024,125.0
2023-12-02T04:07:03,42.805,6.029,0.02,-0.023,0.005,110.0,110.0,108.0,13.4,1505.2,0.9,-0.8,1.8,2471.516,13.29,0.03,139.0
2023-12-02T04:10:03,42.805,6.029,0.014,-0.033,-0.012,110.0,110.0,107.0,13.4,1505.2,340.7,-0.8,1.8,2471.558,13.29,0.035,157.0
2023-12-02T04:13:03,42.805,6.029,0.017,-0.026,0.001,111.0,110.0,107.0,13.4,1505.2,358.1,-0.8,1.8,2471.544,13.29,0.031,146.8
2023-12-02T04:16:03,42.805,6.029,0.033,-0.007,0.033,112.0,110.0,106.0,13.4,1505.2,343.8,-0.7,1.8,2471.553,13.29,0.033,102.0
2023-12-02T04:19:03,42.805,6.029,0.037,-0.029,0.001,111.0,111.0,108.0,13.4,1505.2,345.0,-0.7,1.8,2471.524,13.29,0.047,128.1
2023-12-02T04:22:03,42.805,6.029,0.024,-0.017,-0.032,110.0,111.0,106.0,13.3,1505.2,3.3,-0.8,1.8,2471.501,13.29,0.029,125.3
2023-12-02T04:25:03,42.805,6.029,0.005,-0.027,0.014,110.0,109.0,106.0,13.4,1505.2,356.3,-0.8,1.8,2471.55,13.29,0.027,169.5
2023-12-02T04:28:03,42.805,6.029,0.04,-0.035,-0.006,108.0,110.0,107.0,13.4,1505.2,351.4,-0.8,1.8,2471.54,13.29,0.053,131.2
2023-12-02T04:31:03,42.805,6.029,0.017,-0.03,-0.007,110.0,110.0,105.0,13.4,1505.2,345.6,-0.8,1.8,2471.518,13.29,0.034,150.5
2023-12-02T04:34:03,42.805,6.029,0.021,-0.013,-0.021,111.0,110.0,108.0,13.4,1505.2,350.2,-0.8,1.8,2471.53,13.29,0.024,121.8
2023-12-02T04:37:03,42.805,6.029,0.015,-0.033,-0.008,111.0,111.0,106.0,13.4,1505.2,356.1,-0.7,1.8,2471.53,13.29,0.036,155.6
2023-12-02T04:40:03,42.805,6.029,0.034,-0.007,0.027,111.0,110.0,107.0,13.3,1505.2,348.6,-0.7,1.8,2471.548,13.29,0.034,101.6
2023-12-02T04:43:03,42.805,6.029,0.005,-0.016,-0.024,111.0,110.0,107.0,13.4,1505.2,355.3,-0.8,1.8,2471.541,13.29,0.016,162.6
2023-12-02T04:46:03,42.805,6.029,0.025,-0.03,0.016,110.0,111.0,107.0,13.4,1505.2,346.3,-0.7,1.8,2471.526,13.29,0.039,140.2
2023-12-02T04:49:03,42.805,6.029,0.0,-0.035,-0.021,110.0,109.0,107.0,13.4,1505.2,0.0,-0.7,1.8,2471.53,13.29,0.035,180.0
2023-12-02T04:52:03,42.805,6.029,0.034,-0.011,-0.022,112.0,110.0,106.0,13.3,1505.2,334.5,-0.8,1.8,2471.484,13.29,0.035,107.9
2023-12-02T04:55:03,42.805,6.029,0.018,-0.017,-0.005,111.0,111.0,107.0,13.4,1505.2,342.8,-0.7,1.8,2471.511,13.29,0.024,133.4
2023-12-02T04:58:03,42.805,6.029,0.028,-0.023,0.0,110.0,110.0,107.0,13.4,1505.2,346.6,-0.8,1.8,2471.533,13.29,0.036,129.4
2023-12-02T05:04:03,42.805,6.029,0.031,-0.014,-0.021,111.0,110.0,107.0,13.3,1505.2,335.3,-0.7,1.8,2471.585,13.28,0.034,114.3
2023-12-02T05:07:03,42.805,6.029,0.036,-0.039,-0.01,111.0,109.0,106.0,13.3,1505.2,345.0,-0.8,1.8,2471.54,13.29,0.053,137.3
2023-12-02T05:10:03,42.805,6.029,0.034,-0.02,0.003,111.0,110.0,107.0,13.3,1505.2,0.0,-0.8,1.8,2471.542,13.29,0.039,120.5
2023-12-02T05:13:03,42.805,6.029,0.037,-0.033,0.008,109.0,110.0,107.0,13.4,1505.2,335.6,-0.8,1.8,2471.566,13.29,0.049,131.7
2023-12-02T05:16:03,42.805,6.029,0.038,-0.036,0.0,111.0,110.0,108.0,13.3,1505.2,354.5,-0.8,1.8,2471.591,13.29,0.052,133.5
2023-12-02T05:19:03,42.805,6.029,0.025,-0.007,0.004,110.0,110.0,107.0,13.4,1505.2,349.0,-0.7,1.8,2471.515,13.29,0.025,105.6
2023-12-02T05:22:03,42.805,6.029,0.026,-0.023,0.011,111.0,110.0,107.0,13.3,1505.2,349.6,-0.7,1.8,2471.548,13.29,0.034,131.5
2023-12-02T05:25:03,42.805,6.029,0.017,-0.013,0.008,111.0,110.0,107.0,13.4,1505.2,344.3,-0.7,1.8,2471.556,13.29,0.021,127.4
2023-12-02T05:28:03,42.805,6.029,0.022,-0.02,-0.015,110.0,110.0,107.0,13.4,1505.2,342.6,-0.8,1.8,2471.522,13.29,0.029,132.3
2023-12-02T05:31:03,42.805,6.029,0.038,-0.031,0.01,110.0,110.0,107.0,13.4,1505.2,0.0,-0.8,1.8,2471.533,13.29,0.049,129.2
2023-12-02T05:34:03,42.805,6.029,0.017,-0.011,0.002,110.0,108.0,107.0,13.4,1505.2,0.8,-0.8,1.8,2471.543,13.29,0.02,122.9
2023-12-02T05:37:03,42.805,6.029,0.03,-0.009,-0.021,111.0,109.0,107.0,13.3,1505.2,356.3,-0.8,1.8,2471.521,13.29,0.031,106.7
2023-12-02T05:40:03,42.805,6.029,0.032,-0.016,-0.016,110.0,110.0,107.0,13.4,1505.2,0.0,-0.8,1.8,2471.541,13.29,0.035,116.6
2023-12-02T05:43:03,42.805,6.029,0.033,-0.024,-0.004,111.0,109.0,107.0,13.4,1505.2,338.3,-0.8,1.8,2471.563,13.29,0.04,126.0
2023-12-02T05:46:03,42.805,6.029,0.032,-0.033,0.005,112.0,110.0,108.0,13.4,1505.2,351.1,-0.8,1.8,2471.552,13.29,0.045,135.9
2023-12-02T05:49:03,42.805,6.029,0.032,-0.039,0.007,110.0,109.0,107.0,13.4,1505.2,1.8,-0.8,1.8,2471.514,13.29,0.05,140.6
2023-12-02T05:52:03,42.805,6.029,0.055,0.004,0.024,109.0,110.0,107.0,13.4,1505.2,339.6,-0.8,1.8,2471.587,13.29,0.055,85.8
2023-12-02T05:55:03,42.805,6.029,0.028,-0.03,-0.001,111.0,110.0,106.0,13.4,1505.2,344.7,-0.8,1.8,2471.552,13.29,0.041,137.0
2023-12-02T05:58:03,42.805,6.029,0.046,-0.046,0.008,110.0,109.0,107.0,13.3,1505.2,355.2,-0.7,1.8,2471.599,13.29,0.065,135.0
2023-12-02T06:04:03,42.805,6.029,0.042,-0.03,-0.014,111.0,110.0,106.0,13.4,1505.2,350.3,-0.8,1.8,2471.61,13.28,0.051,125.5
2023-12-02T06:07:03,42.805,6.029,0.033,-0.021,-0.006,110.0,109.0,107.0,13.3,1505.2,342.8,-0.8,1.8,2471.601,13.29,0.039,122.5
2023-12-02T06:10:03,42.805,6.029,0.038,-0.033,0.008,110.0,109.0,107.0,13.4,1505.2,0.0,-0.8,1.8,2471.595,13.29,0.05,131.0
2023-12-02T06:13:03,42.805,6.029,0.022,-0.026,-0.004,111.0,110.0,107.0,13.4,1505.2,1.7,-0.8,1.8,2471.619,13.29,0.034,139.8
2023-12-02T06:16:03,42.805,6.029,0.048,-0.033,-0.029,110.0,109.0,106.0,13.3,1505.2,343.0,-0.8,1.9,2471.59,13.29,0.058,124.5
2023-12-02T06:19:03,42.805,6.029,0.015,-0.026,-0.009,111.0,111.0,106.0,13.4,1505.2,354.6,-0.8,1.8,2471.578,13.29,0.03,150.0
2023-12-02T06:22:03,42.805,6.029,0.041,-0.027,0.007,110.0,109.0,107.0,13.4,1505.2,350.0,-0.8,1.8,2471.591,13.29,0.049,123.4
2023-12-02T06:25:03,42.805,6.029,0.038,-0.017,0.019,110.0,109.0,106.0,13.4,1505.2,336.3,-0.7,1.8,2471.541,13.29,0.041,114.1
2023-12-02T06:28:03,42.805,6.029,0.044,-0.018,-0.003,111.0,110.0,107.0,13.3,1505.2,345.3,-0.7,1.8,2471.568,13.29,0.047,112.2
2023-12-02T06:31:03,42.805,6.029,0.045,-0.027,0.006,110.0,109.0,107.0,13.3,1505.2,343.7,-0.8,1.8,2471.565,13.29,0.052,121.0
2023-12-02T06:34:03,42.805,6.029,0.016,-0.044,-0.015,110.0,110.0,106.0,13.3,1505.2,344.1,-0.7,1.8,2471.609,13.29,0.046,160.0
2023-12-02T06:37:03,42.805,6.029,0.023,-0.036,0.009,109.0,108.0,107.0,13.4,1505.2,0.0,-0.8,1.8,2471.556,13.29,0.042,147.4
2023-12-02T06:40:03,42.805,6.029,0.027,-0.043,0.004,111.0,110.0,106.0,13.4,1505.2,0.0,-0.8,1.8,2471.588,13.29,0.05,147.9
2023-12-02T06:43:03,42.805,6.029,0.052,-0.028,-0.007,111.0,109.0,106.0,13.3,1505.2,337.6,-0.8,1.8,2471.623,13.29,0.059,118.3
2023-12-02T06:46:03,42.805,6.029,0.039,-0.028,-0.013,110.0,109.0,107.0,13.4,1505.2,345.9,-0.7,1.8,2471.602,13.29,0.048,125.7
2023-12-02T06:49:03,42.805,6.029,0.035,-0.024,0.028,109.0,109.0,107.0,13.4,1505.2,354.3,-0.8,1.8,2471.589,13.29,0.042,124.4
2023-12-02T06:52:03,42.805,6.029,0.026,-0.034,-0.022,109.0,109.0,107.0,13.3,1505.2,349.7,-0.8,1.8,2471.597,13.29,0.042,142.6
2023-12-02T06:55:03,42.805,6.029,0.048,-0.031,-0.001,109.0,109.0,107.0,13.3,1505.2,343.7,-0.7,1.8,2471.597,13.29,0.057,122.9
2023-12-02T06:58:03,42.805,6.029,0.043,-0.048,-0.023,110.0,109.0,107.0,13.3,1505.2,345.2,-0.8,1.8,2471.589,13.29,0.064,138.1
2023-12-02T07:04:03,42.805,6.029,0.056,-0.028,-0.032,112.0,110.0,107.0,13.3,1505.2,346.3,-0.8,1.8,2471.632,13.28,0.062,116.6
2023-12-02T07:07:03,42.805,6.029,0.039,-0.031,0.005,110.0,109.0,107.0,13.4,1505.2,348.2,-0.8,1.8,2471.649,13.29,0.049,128.5
2023-12-02T07:10:03,42.805,6.029,0.034,-0.035,-0.066,111.0,110.0,107.0,13.3,1505.2,355.5,-0.7,1.8,2471.656,13.29,0.048,135.8
2023-12-02T07:13:03,42.805,6.029,0.042,-0.062,0.003,110.0,109.0,107.0,13.3,1505.2,0.0,-0.8,1.8,2471.658,13.29,0.074,145.9
2023-12-02T07:16:03,42.805,6.029,0.041,-0.034,0.002,110.0,110.0,107.0,13.4,1505.2,344.0,-0.8,1.8,2471.636,13.29,0.053,129.7
2023-12-02T07:19:03,42.805,6.029,0.038,-0.063,-0.005,110.0,111.0,108.0,13.3,1505.2,1.7,-0.8,1.8,2471.668,13.29,0.073,148.9
2023-12-02T07:22:03,42.805,6.029,0.041,-0.045,-0.001,111.0,110.0,107.0,13.4,1505.2,356.4,-0.8,1.8,2471.635,13.29,0.06,137.7
2023-12-02T07:25:03,42.805,6.029,0.048,-0.05,-0.003,111.0,110.0,107.0,13.4,1505.2,0.0,-0.8,1.8,2471.603,13.29,0.069,136.2
2023-12-02T07:28:03,42.805,6.029,0.047,-0.031,-0.018,110.0,109.0,108.0,13.4,1505.2,354.4,-0.7,1.8,2471.652,13.29,0.056,123.4
2023-12-02T07:31:03,42.805,6.029,0.052,-0.033,0.002,111.0,109.0,107.0,13.3,1505.2,353.5,-0.8,1.8,2471.655,13.29,0.061,122.4
2023-12-02T07:34:03,42.805,6.029,0.057,-0.017,0.01,111.0,110.0,107.0,13.4,1505.2,344.6,-0.7,1.8,2471.649,13.29,0.059,106.6
2023-12-02T07:37:03,42.805,6.029,0.062,-0.045,-0.003,111.0,109.0,106.0,13.3,1505.2,341.5,-0.8,1.8,2471.639,13.29,0.076,126.0
2023-12-02T07:40:03,42.805,6.029,0.036,-0.03,0.01,110.0,109.0,107.0,13.4,1505.2,358.0,-0.8,1.8,2471.635,13.29,0.046,129.8
2023-12-02T07:43:03,42.805,6.029,0.065,-0.032,-0.02,111.0,110.0,107.0,13.4,1505.2,337.3,-0.7,1.8,2471.681,13.29,0.072,116.2
2023-12-02T07:46:03,42.805,6.029,0.033,-0.032,-0.002,111.0,108.0,107.0,13.4,1505.2,343.4,-0.8,1.8,2471.662,13.29,0.045,134.1
2023-12-02T07:49:03,42.805,6.029,0.035,-0.041,0.008,111.0,109.0,107.0,13.4,1505.2,352.7,-0.8,1.8,2471.636,13.29,0.053,139.5
2023-12-02T07:52:03,42.805,6.029,0.058,-0.037,-0.012,110.0,110.0,107.0,13.4,1505.2,348.1,-0.8,1.8,2471.688,13.29,0.068,122.5
2023-12-02T07:55:03,42.805,6.029,0.046,-0.047,-0.015,110.0,110.0,106.0,13.4,1505.2,350.3,-0.8,1.8,2471.655,13.29,0.065,135.6
2023-12-02T07:58:03,42.805,6.029,0.053,-0.026,0.003,111.0,110.0,106.0,13.4,1505.2,339.4,-0.7,1.8,2471.665,13.29,0.059,116.1
2023-12-02T08:04:03,42.805,6.029,0.05,-0.058,0.006,110.0,109.0,106.0,13.4,1505.2,353.7,-0.7,1.8,2471.706,13.28,0.076,139.2
2023-12-02T08:07:03,42.805,6.029,0.031,-0.05,-0.006,110.0,110.0,106.0,13.4,1505.2,354.5,-0.8,1.8,2471.72,13.28,0.058,148.2
2023-12-02T08:10:03,42.805,6.029,0.032,-0.064,-0.017,111.0,109.0,106.0,13.4,1505.2,0.9,-0.8,1.8,2471.706,13.29,0.071,153.4
2023-12-02T08:13:03,42.805,6.029,0.066,-0.013,0.003,111.0,110.0,106.0,13.4,1505.2,341.0,-0.8,1.8,2471.68,13.29,0.067,101.1
2023-12-02T08:16:03,42.805,6.029,0.044,-0.033,-0.015,110.0,107.0,107.0,13.4,1505.2,348.5,-0.8,1.8,2471.64,13.29,0.055,126.9
2023-12-02T08:19:03,42.805,6.029,0.05,-0.047,-0.038,109.0,109.0,107.0,13.4,1505.2,338.3,-0.8,1.8,2471.682,13.29,0.068,133.2
2023-12-02T08:22:03,42.805,6.029,0.041,-0.039,0.0,110.0,109.0,107.0,13.4,1505.2,351.7,-0.8,1.8,2471.688,13.29,0.056,133.6
2023-12-02T08:25:03,42.805,6.029,0.042,-0.026,0.009,110.0,110.0,106.0,13.4,1505.2,350.2,-0.7,1.8,2471.707,13.29,0.049,121.8
2023-12-02T08:28:03,42.805,6.029,0.028,-0.041,-0.003,111.0,111.0,107.0,13.4,1505.2,355.5,-0.8,1.8,2471.683,13.29,0.049,145.7
2023-12-02T08:31:03,42.805,6.029,0.033,-0.023,-0.015,110.0,109.0,108.0,13.4,1505.2,357.0,-0.8,1.8,2471.711,13.29,0.04,124.9
2023-12-02T08:34:03,42.805,6.029,0.034,-0.029,-0.006,110.0,110.0,106.0,13.4,1505.2,336.9,-0.8,1.8,2471.72,13.29,0.044,130.5
2023-12-02T08:37:03,42.805,6.029,0.04,-0.021,0.014,110.0,109.0,107.0,13.4,1505.2,343.1,-0.8,1.8,2471.658,13.29,0.045,117.7
2023-12-02T08:40:03,42.805,6.029,0.008,-0.054,-0.016,110.0,109.0,107.0,13.4,1505.2,2.5,-0.7,1.8,2471.684,13.29,0.054,171.6
2023-12-02T08:43:03,42.805,6.029,0.055,-0.053,-0.013,110.0,109.0,107.0,13.4,1505.2,349.6,-0.7,1.8,2471.682,13.29,0.076,133.9
2023-12-02T08:46:03,42.805,6.029,0.063,-0.038,-0.017,111.0,109.0,106.0,13.4,1505.2,341.8,-0.7,1.8,2471.678,13.29,0.073,121.1
2023-12-02T08:49:03,42.805,6.029,0.047,-0.025,0.009,110.0,110.0,107.0,13.4,1505.2,355.2,-0.8,1.8,2471.726,13.29,0.053,118.0
2023-12-02T08:52:03,42.805,6.029,0.054,-0.052,-0.026,111.0,109.0,107.0,13.4,1505.2,345.7,-0.7,1.8,2471.689,13.29,0.074,133.9
2023-12-02T08:55:03,42.805,6.029,0.054,-0.024,-0.002,111.0,109.0,107.0,13.4,1505.2,343.8,-0.8,1.8,2471.698,13.29,0.059,114.0
2023-12-02T08:58:03,42.805,6.029,0.026,-0.058,-0.027,110.0,111.0,105.0,13.3,1505.2,0.0,-0.8,1.8,2471.697,13.29,0.063,155.9
2023-12-02T09:04:03,42.805,6.029,0.037,-0.016,-0.017,110.0,110.0,107.0,13.3,1505.2,342.9,-0.8,1.8,2471.764,13.28,0.04,113.4
2023-12-02T09:07:03,42.805,6.029,0.039,-0.039,-0.017,111.0,110.0,106.0,13.3,1505.2,350.1,-0.8,1.8,2471.76,13.28,0.055,135.0
2023-12-02T09:10:03,42.805,6.029,0.036,-0.06,0.013,110.0,109.0,108.0,13.3,1505.2,356.4,-0.8,1.8,2471.716,13.29,0.069,149.0
2023-12-02T09:13:03,42.805,6.029,0.033,-0.03,-0.037,111.0,110.0,107.0,13.4,1505.2,0.0,-0.8,1.8,2471.756,13.29,0.044,132.3
2023-12-02T09:16:03,42.805,6.029,0.055,-0.054,-0.018,111.0,110.0,108.0,13.3,1505.2,349.9,-0.7,1.8,2471.735,13.29,0.077,134.5
2023-12-02T09:19:03,42.805,6.029,0.016,-0.039,-0.02,109.0,110.0,106.0,13.4,1505.2,1.6,-0.8,1.8,2471.733,13.29,0.042,157.7
2023-12-02T09:22:03,42.805,6.029,0.039,-0.03,-0.023,111.0,110.0,107.0,13.3,1505.2,344.0,-0.8,1.8,2471.728,13.29,0.049,127.6
2023-12-02T09:25:03,42.805,6.029,0.034,-0.035,-0.004,111.0,110.0,107.0,13.4,1505.2,351.3,-0.8,1.8,2471.735,13.29,0.048,135.8
2023-12-02T09:28:03,42.805,6.029,0.04,-0.061,0.001,109.0,108.0,107.0,13.4,1505.2,356.2,-0.8,1.8,2471.747,13.29,0.072,146.7
2023-12-02T09:31:03,42.805,6.029,0.026,-0.047,-0.024,111.0,109.0,106.0,13.3,1505.2,0.8,-0.7,1.8,2471.723,13.29,0.053,151.0
2023-12-02T09:34:03,42.805,6.029,0.034,-0.035,-0.014,110.0,110.0,108.0,13.4,1505.2,347.7,-0.7,1.8,2471.696,13.29,0.048,135.8
2023-12-02T09:37:03,42.805,6.029,0.032,-0.03,-0.017,111.0,109.0,108.0,13.3,1505.2,352.9,-0.7,1.8,2471.751,13.29,0.043,133.1
2023-12-02T09:40:03,42.805,6.029,0.032,-0.045,-0.013,111.0,110.0,108.0,13.3,1505.2,345.7,-0.8,1.8,2471.729,13.29,0.055,144.6
2023-12-02T09:43:03,42.805,6.029,0.02,-0.044,-0.021,112.0,110.0,106.0,13.4,1505.2,350.3,-0.8,1.8,2471.745,13.29,0.048,155.6
2023-12-02T09:46:03,42.805,6.029,0.032,-0.025,-0.035,111.0,110.0,106.0,13.3,1505.2,337.3,-0.8,1.8,2471.735,13.29,0.04,128.0
2023-12-02T09:49:03,42.805,6.029,0.035,-0.021,0.021,111.0,110.0,108.0,13.3,1505.2,344.9,-0.7,1.8,2471.734,13.29,0.04,121.0
2023-12-02T09:52:03,42.805,6.029,0.029,-0.035,0.007,109.0,110.0,108.0,13.4,1505.2,359.0,-0.8,1.8,2471.742,13.29,0.045,140.4